Vorticity
10 -0 6 16 12 22 21 21 22 13 2 5 7 2 5 5 6 4 2 3 0 4 3 7 8 8 11 27 3 1 6 10 7 9 14 5 5 2 12 8 14 8 8 1
7 3 8 19 22 15 8 6 3 5 4 2 1 3 5 6 5 4 3 4 4 2 -1 3 7 6 6 16 21 17 2 -4 9 4 15 17 -0 3 10 8 8 11 8 5
3 7 19 25 6 3 5 5 2 3 4 -0 5 4 6 6 5 6 6 6 6 7 5 -0 1 0 3 5 9 11 43 10 1 2 8 6 18 1 8 7 13 9 7 7
5 18 21 10 5 2 5 4 4 3 2 7 7 8 5 6 8 5 8 9 8 7 9 7 5 3 5 5 4 5 11 41 3 -0 3 12 10 6 12 1 0 11 8 8
13 19 10 5 3 4 4 5 2 4 2 5 8 9 8 4 8 8 7 8 8 8 11 5 12 6 5 -1 9 7 7 5 31 5 -4 6 13 16 9 -8 -12 -1 3 2
15 13 7 4 4 6 6 3 2 5 2 7 11 7 6 6 9 7 8 9 11 15 18 19 19 20 10 4 10 17 9 5 8 30 10 1 11 6 4 -10 -5 4 10 3
14 11 6 5 5 6 1 4 3 5 4 11 11 8 7 6 11 10 8 16 23 22 26 28 32 25 22 18 15 13 17 9 4 2 13 49 -9 3 9 9 0 9 7 3
11 8 7 7 6 5 3 2 8 3 11 10 9 11 11 5 11 12 18 23 24 28 38 -0 16 23 27 24 16 23 17 6 18 13 5 4 23 67 -7 2 1 3 7 2
9 9 10 8 5 3 3 5 -1 10 9 9 6 11 9 10 14 17 28 27 12 14 28 2 12 17 12 34 29 17 19 19 5 13 9 7 8 8 47 10 -4 0 -2 2
9 9 10 8 4 3 8 -1 7 7 8 8 8 12 10 15 18 19 27 12 6 11 22 10 14 27 -2 25 20 22 13 11 17 12 9 5 5 14 15 23 56 7 1 -1
10 10 9 8 7 7 5 10 -2 11 13 7 10 12 14 13 27 17 14 9 13 8 14 8 9 8 -3 -9 9 17 23 13 12 13 15 12 8 12 12 17 33 31 48 5
10 11 11 10 10 9 5 7 16 12 13 12 12 10 19 22 16 23 11 3 13 12 21 14 -5 -10 7 -3 30 13 19 16 18 15 17 16 14 15 11 6 6 12 27 41
13 9 9 12 16 19 18 18 19 16 9 12 13 20 16 19 15 18 17 13 15 22 14 21 21 9 11 5 35 14 6 18 19 11 12 11 10 11 8 6 9 10 11 11
16 15 12 12 15 12 15 14 12 13 13 11 9 22 18 14 16 23 18 15 15 17 21 20 12 29 27 9 1 13 2 -3 13 13 9 7 8 11 13 14 12 10 10 14
15 19 19 16 17 13 20 17 14 10 11 3 17 19 15 16 13 20 22 17 17 26 24 14 28 12 17 7 7 11 21 26 13 12 13 14 13 14 16 14 13 15 11 12
17 13 11 12 15 12 21 13 15 13 10 9 14 26 12 15 12 19 17 15 24 14 14 18 14 9 13 5 19 7 -6 2 14 16 11 8 8 11 14 13 14 10 12 19
14 13 20 26 23 21 9 6 5 12 11 13 18 21 13 13 16 17 19 16 14 10 18 23 23 3 11 24 16 1 -2 2 9 14 12 15 14 14 5 15 17 14 11 12
12 10 7 7 8 9 12 13 10 12 15 16 19 17 19 17 13 18 20 20 15 11 10 20 35 30 -4 -16 17 8 11 10 3 15 13 17 17 15 8 6 5 5 8 8
8 -2 2 16 12 13 8 14 12 14 18 23 23 18 20 19 13 16 18 18 15 11 11 12 15 35 32 18 16 10 10 3 4 3 2 2 1 12 16 17 13 8 6 4
13 14 14 16 18 15 16 19 16 17 17 22 24 21 16 16 13 14 14 15 14 14 15 13 8 11 24 18 19 22 19 19 10 6 2 6 14 9 7 9 14 20 22 24
4 10 11 14 16 18 19 19 23 18 22 21 18 15 14 14 13 14 16 17 16 15 22 24 19 6 -1 -3 -5 -1 -2 13 16 18 7 8 12 14 9 8 8 10 7 8
13 15 17 17 21 22 21 22 17 19 14 11 17 14 14 13 13 15 14 16 17 18 15 16 22 22 17 17 17 15 19 16 10 10 11 8 9 13 11 12 6 2 4 1
16 18 22 21 17 19 21 15 7 28 13 8 3 9 12 16 15 14 14 12 13 12 12 14 20 26 21 12 13 8 6 3 8 11 10 15 12 5 2 -0 2 4 5 7
20 20 19 19 17 19 20 18 2 4 6 19 14 16 19 14 13 12 12 17 15 13 9 13 15 15 13 13 14 15 21 27 25 29 27 19 -0 4 -3 12 16 15 10 11
20 20 16 20 20 18 9 13 17 7 12 10 6 24 15 13 9 9 9 11 10 9 12 10 9 10 7 6 7 10 13 13 14 14 14 17 26 28 31 21 11 12 14 10
19 23 19 17 19 22 4 -2 3 15 9 8 25 17 11 11 6 9 8 8 12 14 15 13 10 9 6 6 6 8 9 7 7 6 6 5 6 8 14 14 19 18 18 21
28 22 22 18 19 16 13 7 18 13 18 6 27 14 11 8 4 3 8 2 3 12 13 13 15 16 16 13 9 10 13 15 16 11 9 8 8 8 8 11 13 8 7 8
Height
5692 5689 5685 5680 5675 5671 5666 5662 5660 5656 5652 5650 5645 5642 5638 5634 5628 5624 5621 5617 5613 5609 5606 5604 5599 5596 5591 5590 5588 5587 5586 5584 5586 5588 5588 5589 5587 5586 5587 5587 5591 5593 5595 5600
5684 5680 5675 5670 5666 5663 5660 5657 5654 5650 5647 5643 5639 5635 5631 5627 5622 5618 5615 5611 5608 5603 5599 5596 5594 5591 5588 5584 5581 5580 5582 5579 5579 5581 5585 5584 5584 5583 5583 5586 5587 5591 5592 5597
5676 5672 5667 5663 5660 5658 5655 5653 5648 5644 5639 5635 5630 5625 5621 5616 5612 5608 5604 5600 5597 5594 5591 5587 5586 5583 5580 5579 5575 5573 5570 5571 5573 5575 5575 5577 5578 5578 5579 5580 5583 5587 5590 5592
5668 5662 5658 5655 5652 5650 5647 5645 5641 5635 5631 5626 5620 5615 5610 5605 5600 5597 5592 5590 5585 5582 5579 5576 5574 5572 5571 5570 5569 5565 5562 5561 5565 5566 5568 5569 5571 5573 5573 5576 5579 5582 5587 5587
5659 5655 5650 5646 5643 5641 5638 5634 5630 5625 5620 5614 5609 5603 5598 5593 5587 5583 5579 5575 5571 5567 5564 5560 5560 5558 5556 5557 5557 5556 5554 5552 5553 5557 5558 5559 5561 5565 5568 5571 5575 5578 5582 5584
5651 5647 5643 5638 5634 5631 5628 5625 5619 5613 5608 5602 5597 5591 5584 5578 5572 5570 5561 5557 5553 5548 5544 5541 5540 5540 5540 5539 5542 5544 5543 5543 5543 5543 5547 5547 5547 5559 5563 5567 5568 5572 5575 5578
5644 5640 5635 5630 5625 5621 5616 5613 5608 5602 5595 5589 5584 5577 5570 5563 5557 5552 5546 5539 5533 5530 5525 5521 5520 5520 5521 5523 5526 5529 5531 5531 5532 5533 5534 5534 5538 5546 5552 5555 5559 5560 5564 5570
5635 5631 5625 5620 5615 5610 5605 5600 5594 5589 5583 5576 5572 5563 5555 5548 5541 5534 5529 5522 5517 5512 5509 5507 5506 5507 5505 5509 5511 5515 5518 5520 5519 5521 5523 5526 5527 5531 5538 5543 5548 5551 5554 5556
5625 5621 5615 5610 5604 5597 5591 5586 5579 5573 5567 5565 5555 5547 5540 5533 5526 5522 5515 5510 5504 5502 5499 5497 5494 5495 5494 5494 5498 5502 5505 5506 5509 5509 5512 5514 5519 5519 5521 5528 5534 5538 5541 5547
5615 5609 5603 5597 5591 5585 5577 5570 5563 5557 5552 5550 5539 5531 5524 5517 5510 5504 5501 5498 5497 5494 5490 5488 5487 5487 5486 5486 5488 5491 5492 5493 5496 5497 5498 5504 5507 5508 5510 5512 5519 5522 5527 5532
5602 5596 5590 5583 5576 5570 5564 5555 5548 5541 5539 5535 5524 5517 5510 5502 5497 5490 5488 5486 5487 5483 5480 5479 5479 5478 5478 5479 5480 5481 5482 5483 5485 5487 5489 5493 5494 5499 5501 5501 5502 5505 5510 5516
5590 5582 5574 5567 5560 5554 5548 5540 5533 5527 5524 5521 5513 5504 5496 5489 5482 5478 5475 5474 5472 5470 5469 5468 5468 5469 5469 5470 5471 5473 5475 5475 5476 5478 5480 5480 5482 5486 5489 5491 5492 5495 5497 5501
5574 5566 5559 5550 5542 5536 5531 5525 5519 5514 5512 5507 5498 5489 5481 5474 5470 5464 5462 5463 5459 5457 5456 5456 5456 5456 5461 5460 5462 5464 5465 5465 5466 5469 5470 5471 5472 5474 5477 5481 5484 5485 5488 5490
5559 5551 5543 5535 5528 5521 5516 5511 5504 5498 5494 5493 5488 5477 5469 5462 5457 5452 5449 5448 5446 5445 5443 5444 5445 5447 5450 5452 5453 5455 5456 5457 5458 5460 5461 5462 5464 5466 5468 5471 5473 5475 5478 5479
5543 5536 5528 5521 5514 5508 5501 5495 5490 5484 5479 5476 5472 5464 5457 5450 5446 5443 5439 5436 5434 5433 5433 5434 5436 5438 5440 5442 5445 5447 5448 5449 5450 5451 5453 5454 5456 5458 5460 5462 5463 5464 5466 5468
5529 5523 5516 5508 5500 5494 5486 5483 5478 5471 5465 5460 5457 5453 5445 5439 5435 5431 5428 5426 5425 5425 5426 5426 5428 5431 5432 5433 5437 5439 5440 5441 5442 5443 5445 5446 5448 5450 5451 5452 5454 5455 5457 5459
5517 5511 5503 5495 5487 5480 5475 5470 5465 5457 5452 5446 5442 5439 5433 5429 5426 5422 5419 5417 5416 5417 5418 5417 5419 5422 5423 5425 5428 5430 5431 5433 5434 5435 5438 5439 5440 5441 5442 5443 5444 5446 5448 5450
5506 5499 5493 5486 5477 5470 5465 5457 5451 5444 5439 5433 5429 5426 5423 5419 5416 5414 5411 5410 5408 5409 5409 5410 5409 5412 5414 5416 5420 5421 5423 5425 5427 5429 5431 5431 5432 5433 5433 5434 5435 5437 5438 5440
5495 5488 5482 5475 5466 5459 5453 5446 5440 5433 5428 5421 5418 5414 5413 5410 5407 5405 5404 5402 5401 5401 5401 5402 5402 5402 5404 5409 5411 5412 5414 5416 5417 5420 5422 5424 5425 5426 5426 5426 5427 5427 5429 5431
5483 5476 5470 5462 5455 5447 5441 5434 5428 5421 5417 5412 5409 5406 5404 5403 5399 5398 5398 5395 5394 5394 5395 5394 5395 5397 5399 5400 5401 5402 5404 5407 5408 5410 5413 5415 5417 5417 5418 5418 5418 5419 5420 5421
5472 5465 5457 5448 5441 5434 5427 5421 5416 5411 5408 5405 5402 5400 5397 5395 5393 5391 5389 5388 5387 5387 5388 5388 5389 5391 5393 5393 5393 5393 5395 5396 5398 5400 5402 5404 5406 5407 5408 5409 5410 5411 5412 5413
5458 5450 5443 5436 5429 5422 5417 5410 5407 5403 5401 5399 5396 5394 5391 5389 5387 5385 5384 5382 5382 5381 5381 5381 5381 5382 5382 5383 5384 5384 5385 5386 5388 5390 5392 5393 5394 5396 5398 5399 5401 5401 5402 5404
5445 5437 5430 5423 5419 5413 5407 5403 5399 5397 5396 5394 5392 5390 5387 5384 5382 5381 5379 5378 5377 5376 5375 5375 5375 5375 5375 5375 5376 5376 5377 5377 5378 5380 5381 5382 5383 5385 5386 5388 5390 5391 5392 5393
5431 5425 5419 5414 5408 5404 5400 5397 5394 5393 5391 5390 5387 5385 5382 5380 5379 5376 5375 5373 5372 5371 5371 5370 5370 5369 5369 5368 5368 5368 5368 5367 5368 5368 5370 5371 5372 5373 5375 5376 5377 5378 5379 5381
5419 5413 5408 5404 5400 5396 5393 5391 5389 5388 5386 5384 5382 5380 5378 5376 5375 5373 5371 5370 5368 5367 5365 5365 5364 5363 5363 5362 5361 5360 5360 5359 5359 5359 5359 5360 5360 5361 5362 5364 5365 5366 5367 5368
5410 5404 5398 5394 5392 5390 5388 5385 5384 5382 5381 5379 5377 5375 5373 5372 5371 5369 5367 5365 5363 5362 5360 5358 5357 5356 5355 5354 5353 5353 5352 5351 5351 5351 5350 5350 5350 5351 5351 5352 5353 5354 5355 5356
5396 5392 5389 5386 5384 5382 5380 5379 5377 5376 5375 5373 5371 5370 5368 5367 5366 5364 5362 5360 5358 5356 5353 5351 5350 5348 5347 5345 5344 5343 5342 5342 5341 5341 5341 5341 5341 5341 5341 5341 5342 5343 5344 5344